When you browse on this site, cookies collect data to enhance your experience and personalize the content and advertising you see.
Visit our Privacy Policy to learn more. By continuing to use the site, you agree to this use of cookies and data.
  • In Switzerland
  • List of Countries
  • For 7 days
  • Water Temperature
  • Satellite Maps
  • Weather Map
  • Weather Widgets
  • user-avatar
    Login

    Hourly Weather Dublin

    Today, 11 December, Tuesday

    Time Temperature Precipitation Wind Pressure Humidity
    00:00 +6°C° 0 mm 4 mps 750 mmHg 97%
    01:00 +6°C° 0 mm 4 mps 750 mmHg 97%
    02:00 +6°C° 0 mm 4 mps 750 mmHg 97%
    03:00 +7°C° 0 mm 4 mps 749 mmHg 97%
    04:00 +7°C° 0 mm 4 mps 749 mmHg 96%
    05:00 +7°C° 0 mm 5 mps 749 mmHg 96%
    06:00 +7°C° 0 mm 5 mps 748 mmHg 96%
    07:00 +8°C° 0 mm 5 mps 748 mmHg 95%
    08:00 +8°C° 0 mm 6 mps 748 mmHg 95%
    09:00 +8°C° 0 mm 7 mps 747 mmHg 94%
    10:00 +8°C° 0 mm 7 mps 747 mmHg 92%
    11:00 +9°C° 0 mm 8 mps 747 mmHg 90%
    12:00 +8°C° 0 mm 9 mps 746 mmHg 89%
    13:00 +8°C° 0 mm 9 mps 746 mmHg 88%
    14:00 +7°C° 0 mm 9 mps 745 mmHg 88%
    15:00 +7°C° 0 mm 9 mps 745 mmHg 87%
    16:00 +7°C° 0.2 mm 8 mps 744 mmHg 88%
    17:00 +7°C° 0.2 mm 8 mps 744 mmHg 89%
    18:00 +7°C° 0.2 mm 8 mps 744 mmHg 90%
    19:00 +7°C° 1 mm 8 mps 744 mmHg 91%
    20:00 +6°C° 1 mm 8 mps 744 mmHg 93%
    21:00 +6°C° 1 mm 7 mps 744 mmHg 94%
    22:00 +5°C° 0.8 mm 7 mps 745 mmHg 94%
    23:00 +5°C° 0.8 mm 6 mps 745 mmHg 94%

    Tomorrow, 12 December, Wednesday

    Time Temperature Precipitation Wind Pressure Humidity
    00:00 +5°C° 0.8 mm 5 mps 745 mmHg 94%
    01:00 +5°C° 0.2 mm 5 mps 745 mmHg 94%
    02:00 +5°C° 0.2 mm 4 mps 745 mmHg 94%
    03:00 +4°C° 0.2 mm 4 mps 745 mmHg 93%
    04:00 +4°C° 0 mm 4 mps 745 mmHg 94%
    05:00 +4°C° 0 mm 3 mps 746 mmHg 94%
    06:00 +3°C° 0 mm 3 mps 746 mmHg 95%
    07:00 +3°C° 0 mm 3 mps 746 mmHg 94%
    08:00 +2°C° 0 mm 3 mps 746 mmHg 94%
    09:00 +3°C° 0 mm 2 mps 746 mmHg 94%
    10:00 +3°C° 0 mm 3 mps 745 mmHg 90%
    11:00 +4°C° 0 mm 3 mps 745 mmHg 87%
    12:00 +5°C° 0 mm 3 mps 745 mmHg 83%
    13:00 +5°C° 0 mm 4 mps 744 mmHg 83%
    14:00 +5°C° 0 mm 5 mps 743 mmHg 83%
    15:00 +4°C° 0 mm 6 mps 743 mmHg 83%
    16:00 +4°C° 0.1 mm 6 mps 742 mmHg 83%
    17:00 +3°C° 0.1 mm 6 mps 742 mmHg 84%
    18:00 +3°C° 0.1 mm 6 mps 741 mmHg 85%
    19:00 +4°C° 0.2 mm 7 mps 741 mmHg 84%
    20:00 +4°C° 0.2 mm 8 mps 741 mmHg 84%
    21:00 +3°C° 0.2 mm 9 mps 740 mmHg 84%
    22:00 +3°C° 0.1 mm 9 mps 740 mmHg 83%
    23:00 +5°C° 0.1 mm 9 mps 739 mmHg 83%

    Day after tomorrow, 13 December, Thursday

    Time Temperature Precipitation Wind Pressure Humidity
    00:00 +5°C° 0.1 mm 9 mps 739 mmHg 82%
    01:00 +5°C° 0.2 mm 10 mps 738 mmHg 82%
    02:00 +5°C° 0.2 mm 10 mps 738 mmHg 81%
    03:00 +5°C° 0.2 mm 10 mps 738 mmHg 81%
    04:00 +5°C° 0.6 mm 10 mps 738 mmHg 83%
    05:00 +5°C° 0.6 mm 10 mps 738 mmHg 85%
    06:00 +3°C° 0.6 mm 10 mps 738 mmHg 86%
    07:00 +3°C° 0.7 mm 10 mps 738 mmHg 87%
    08:00 +3°C° 0.7 mm 10 mps 739 mmHg 89%
    09:00 +3°C° 0.7 mm 10 mps 739 mmHg 90%
    10:00 +3°C° 0.6 mm 10 mps 740 mmHg 89%
    11:00 +3°C° 0.6 mm 9 mps 741 mmHg 88%
    12:00 +3°C° 0.6 mm 9 mps 741 mmHg 87%
    13:00 +3°C° 0.1 mm 9 mps 742 mmHg 87%
    14:00 +4°C° 0.1 mm 8 mps 742 mmHg 86%
    15:00 +2°C° 0.1 mm 8 mps 743 mmHg 86%
    16:00 +3°C° 0.2 mm 7 mps 744 mmHg 87%
    17:00 +3°C° 0.2 mm 7 mps 744 mmHg 88%
    18:00 +3°C° 0.2 mm 6 mps 745 mmHg 89%
    19:00 +3°C° 0.1 mm 7 mps 745 mmHg 89%
    20:00 +3°C° 0.1 mm 7 mps 746 mmHg 89%
    21:00 +2°C° 0.1 mm 7 mps 746 mmHg 89%
    22:00 +2°C° 0 mm 7 mps 746 mmHg 88%
    23:00 +2°C° 0 mm 7 mps 746 mmHg 88%

    14 December, Friday

    Time Temperature Precipitation Wind Pressure Humidity
    00:00 +2°C° 0 mm 7 mps 746 mmHg 87%
    01:00 +2°C° 0 mm 7 mps 746 mmHg 88%
    02:00 +2°C° 0 mm 7 mps 746 mmHg 88%
    03:00 +2°C° 0 mm 7 mps 746 mmHg 89%
    04:00 +2°C° 0 mm 7 mps 746 mmHg 89%
    05:00 +2°C° 0 mm 8 mps 746 mmHg 89%
    06:00 +2°C° 0 mm 8 mps 745 mmHg 89%
    07:00 +2°C° 0 mm 9 mps 745 mmHg 88%
    08:00 +2°C° 0 mm 9 mps 745 mmHg 87%
    09:00 +3°C° 0 mm 10 mps 745 mmHg 87%
    10:00 +3°C° 0.2 mm 9 mps 746 mmHg 87%
    11:00 +3°C° 0.2 mm 9 mps 746 mmHg 88%
    12:00 +5°C° 0.2 mm 9 mps 746 mmHg 89%
    13:00 +5°C° 0.1 mm 9 mps 746 mmHg 88%
    14:00 +5°C° 0.1 mm 9 mps 746 mmHg 87%
    15:00 +6°C° 0.1 mm 9 mps 745 mmHg 85%
    16:00 +5°C° 0 mm 9 mps 745 mmHg 87%
    17:00 +5°C° 0 mm 9 mps 745 mmHg 88%
    18:00 +5°C° 0 mm 9 mps 745 mmHg 89%
    19:00 +5°C° 0 mm 9 mps 745 mmHg 89%
    20:00 +6°C° 0 mm 10 mps 744 mmHg 89%
    21:00 +6°C° 0 mm 10 mps 744 mmHg 89%
    22:00 +7°C° 0.2 mm 11 mps 743 mmHg 89%
    23:00 +7°C° 0.2 mm 12 mps 742 mmHg 88%

    15 December, Saturday

    Time Temperature Precipitation Wind Pressure Humidity
    00:00 +7°C° 0.2 mm 13 mps 741 mmHg 88%
    01:00 +8°C° 0.9 mm 14 mps 740 mmHg 88%
    02:00 +8°C° 0.9 mm 15 mps 739 mmHg 88%
    03:00 +7°C° 0.9 mm 16 mps 737 mmHg 88%
    04:00 +9°C° 1 mm 15 mps 736 mmHg 88%
    05:00 +9°C° 1 mm 14 mps 736 mmHg 89%
    06:00 +10°C° 1 mm 14 mps 735 mmHg 89%
    07:00 +9°C° 1.3 mm 12 mps 735 mmHg 84%
    08:00 +8°C° 1.3 mm 10 mps 735 mmHg 79%
    09:00 +6°C° 1.3 mm 9 mps 735 mmHg 74%
    10:00 +6°C° 0 mm 8 mps 735 mmHg 74%
    11:00 +6°C° 0 mm 8 mps 736 mmHg 74%
    12:00 +6°C° 0 mm 8 mps 736 mmHg 74%
    13:00 +6°C° 0 mm 8 mps 736 mmHg 75%
    14:00 +5°C° 0 mm 8 mps 737 mmHg 75%
    15:00 +5°C° 0 mm 8 mps 737 mmHg 76%
    16:00 +5°C° 0 mm 8 mps 737 mmHg 76%
    17:00 +3°C° 0 mm 9 mps 737 mmHg 77%
    18:00 +3°C° 0 mm 9 mps 737 mmHg 78%
    19:00 +3°C° 0 mm 9 mps 737 mmHg 77%
    20:00 +3°C° 0 mm 10 mps 737 mmHg 76%
    21:00 +3°C° 0 mm 10 mps 737 mmHg 75%
    22:00 +3°C° 0 mm 10 mps 737 mmHg 75%
    23:00 +3°C° 0 mm 10 mps 738 mmHg 75%

    16 December, Sunday

    Time Temperature Precipitation Wind Pressure Humidity
    00:00 +2°C° 0 mm 10 mps 738 mmHg 76%
    01:00 +2°C° 0 mm 9 mps 738 mmHg 77%
    02:00 +2°C° 0 mm 9 mps 738 mmHg 78%
    03:00 +2°C° 0 mm 9 mps 738 mmHg 79%
    04:00 +2°C° 0 mm 8 mps 739 mmHg 80%
    05:00 +2°C° 0 mm 8 mps 739 mmHg 81%
    06:00 +2°C° 0 mm 8 mps 739 mmHg 82%
    07:00 +2°C° 0 mm 7 mps 740 mmHg 83%
    08:00 +2°C° 0 mm 7 mps 740 mmHg 85%
    09:00 +2°C° 0 mm 7 mps 740 mmHg 86%
    10:00 +3°C° 0 mm 7 mps 741 mmHg 83%
    11:00 +4°C° 0 mm 7 mps 741 mmHg 79%
    12:00 +5°C° 0 mm 7 mps 741 mmHg 76%
    13:00 +5°C° 0 mm 7 mps 741 mmHg 78%
    14:00 +5°C° 0 mm 6 mps 741 mmHg 80%
    15:00 +5°C° 0 mm 5 mps 741 mmHg 82%
    16:00 +5°C° 0 mm 5 mps 741 mmHg 84%
    17:00 +5°C° 0 mm 5 mps 740 mmHg 87%
    18:00 +3°C° 0 mm 5 mps 740 mmHg 89%
    19:00 +3°C° 0.8 mm 5 mps 740 mmHg 91%
    20:00 +3°C° 0.8 mm 5 mps 739 mmHg 93%
    21:00 +3°C° 0.8 mm 5 mps 739 mmHg 94%
    22:00 +3°C° 1.3 mm 5 mps 739 mmHg 93%
    23:00 +3°C° 1.3 mm 6 mps 739 mmHg 92%
    Show more